カタログに戻る

SHIYAN 25

SY-25

運用中科学SSO
NORAD 57047·PAYLOAD·🇨🇳 China

打ち上げ Jun 20, 2023 から Taiyuan Satellite Launch Center

Loading…

次のパス (今後24時間)

TLE

最新Source: Space-Track

元期: Sep 14, 2026, 22:07 UTC

1 57047U 23087A   26257.92186421  .00121615  80680-5  22659-3 0  9998
2 57047  96.9001 322.6646 0010504 237.4580 122.5686 16.00985336189153

AllMySatでSHIYAN 25をリアルタイム追跡

Download on the App Store